STARLINK-32707, 62478

Orbit data source: Space-Track

STARLINK-32707, 62478 is a payload satellite owned by SpaceX/Seattle (US) in LEO that was launched on Tue, 31 Dec 2024 UTC via an FALCON 9 launch vehicle from the Air Force Eastern Test Range (AFETR). Payload-class satellites include a variety of spacecraft equipped with specific instruments for various scientific and technological missions. These include communications satellites like Starlink; space stations such as the ISS; scientific satellites like the Hubble; Earth observation satellites from companies like Planet Labs, Umbra, and HawkEye 360; GPS; miniature CubeSats for education and research; and military/defense satellites.

Loading next visibility...
Identifier
62478, 2024-254S
Orbit
LEO
Country
Flag of USUS
Related business
Manufacturer
SpaceX/Seattle
Mission
Operational Commercial Communications
Bus & Motor
STARLINK V2M, Unknown motor
Mass
730 kg wet, ~700 kg dry
Launch date (UTC)
2024-12-31 (1 year ago)
Launch vehicle
FALCON 9
Launch site
Air Force Eastern Test Range (AFETR)
Object type
Payload
Rocket body
Debris
Shape & HBR
Box + 2 Pan, 17.7 m
Radar Cross Section
33.884 m², Large (>1 m²)

Expand to show TLE details & history
Last TLE update: 21 hours ago

TLE from 21 hours ago
0 STARLINK-32707
1 62478U 24254S   26171.02458771  .00018371  00000-0  67502-3 0  9998
2 62478  42.9992 158.4409 0001422 264.8759  95.1930 15.27600766 83306
Epoch: 2026-06-20T00:35Z
TLE epoch observation values (Epoch: 2026-06-20T00:35:24.378Z)
Latitude
-0.00003°
Longitude
-118.65585°
Altitude
482.851 km
Speed
7.626 km/s
True Right ascension
10h 33m 45s
True Declination
0° 00' 00"
Sunlit
Object was in daylight at epoch
Visualization orbit readout
Latitude
Unknown
Longitude
Unknown
Altitude
Unknown
Speed
Unknown
Apparent Right ascension
Unknown
Apparent Declination
Unknown
Sunlit
N/A
Visualization observer readout
Local Sidereal Time
08:42:22
Azimuth
Unknown
Elevation
Unknown
Doppler factor
Unknown
Orbital elements
Apogee altitude
485.908 km
Perigee altitude
483.956 km
Semi-major axis
6,863.069 km
Eccentricity
0.00014
Inclination
42.9992°
RAAN
158.4409°
Arg. of periapsis
264.8759°
True anomaly
95.20923°
Mean anomaly
95.193°
Eccentric anomaly
95.20111°
Mean motion
3.81738 °/min
Orbital period
94.31 mins
BSTAR
0.00067502
Loading maneuver chart data...
Computing Atmospheric mass density...
Loading historical data...
Loading historical data...
Loading historical data...
Loading historical data...
Loading historical data...
Loading historical data...
Loading historical data...

Documentation

Showing up to 5 results
|